• In Czech Republic
  • List of Countries
  • For 7 days
  • Water Temperature
  • Satellite Maps
  • Weather Map
  • Weather Widgets
  • user-avatar
    Login

    Hourly Weather Sacapa

    Today, 19 October, Friday

    Time Temperature Precipitation Wind Pressure Humidity
    00:00 +22°C° 0.9 mm 1 mps 697 mmHg 95%
    01:00 +20°C° 0.6 mm 0 mps 696 mmHg 96%
    02:00 +20°C° 0.6 mm 0 mps 696 mmHg 96%
    03:00 +19°C° 0.6 mm 0 mps 696 mmHg 96%
    04:00 +19°C° 0.2 mm 0 mps 696 mmHg 96%
    05:00 +19°C° 0.2 mm 0 mps 696 mmHg 96%
    06:00 +19°C° 0.2 mm 0 mps 696 mmHg 96%
    07:00 +21°C° 0.1 mm 0 mps 697 mmHg 90%
    08:00 +22°C° 0.1 mm 0 mps 698 mmHg 84%
    09:00 +24°C° 0.1 mm 0 mps 698 mmHg 78%
    10:00 +25°C° 0.3 mm 0 mps 698 mmHg 75%
    11:00 +26°C° 0.3 mm 0 mps 698 mmHg 71%
    12:00 +27°C° 0.3 mm 0 mps 698 mmHg 67%
    13:00 +26°C° 1.1 mm 0 mps 697 mmHg 71%
    14:00 +26°C° 1.1 mm 0 mps 696 mmHg 75%
    15:00 +25°C° 1.1 mm 0 mps 695 mmHg 79%
    16:00 +23°C° 1.5 mm 0 mps 695 mmHg 84%
    17:00 +22°C° 1.5 mm 0 mps 696 mmHg 88%
    18:00 +21°C° 1.5 mm 0 mps 696 mmHg 93%
    19:00 +21°C° 0.9 mm 0 mps 696 mmHg 94%
    20:00 +20°C° 0.9 mm 0 mps 697 mmHg 94%
    21:00 +20°C° 0.9 mm 0 mps 697 mmHg 95%
    22:00 +20°C° 0.5 mm 0 mps 697 mmHg 95%
    23:00 +20°C° 0.5 mm 0 mps 697 mmHg 95%

    Tomorrow, 20 October, Saturday

    Time Temperature Precipitation Wind Pressure Humidity
    00:00 +20°C° 0.5 mm 0 mps 697 mmHg 95%
    01:00 +20°C° 0.2 mm 0 mps 696 mmHg 95%
    02:00 +20°C° 0.2 mm 0 mps 696 mmHg 95%
    03:00 +20°C° 0.2 mm 0 mps 696 mmHg 95%
    04:00 +19°C° 0.1 mm 0 mps 696 mmHg 95%
    05:00 +19°C° 0.1 mm 0 mps 696 mmHg 95%
    06:00 +19°C° 0.1 mm 0 mps 696 mmHg 95%
    07:00 +23°C° 0 mm 1 mps 697 mmHg 90%
    08:00 +24°C° 0 mm 1 mps 697 mmHg 85%
    09:00 +26°C° 0 mm 1 mps 698 mmHg 80%
    10:00 +27°C° 0.1 mm 1 mps 697 mmHg 74%
    11:00 +29°C° 0.1 mm 1 mps 697 mmHg 68%
    12:00 +30°C° 0.1 mm 1 mps 697 mmHg 62%
    13:00 +30°C° 1 mm 1 mps 696 mmHg 66%
    14:00 +29°C° 1 mm 1 mps 696 mmHg 70%
    15:00 +29°C° 1 mm 1 mps 695 mmHg 74%
    16:00 +27°C° 1.4 mm 1 mps 695 mmHg 80%
    17:00 +25°C° 1.4 mm 1 mps 695 mmHg 86%
    18:00 +24°C° 1.4 mm 1 mps 695 mmHg 92%
    19:00 +23°C° 0.7 mm 1 mps 696 mmHg 93%
    20:00 +23°C° 0.7 mm 1 mps 696 mmHg 94%
    21:00 +23°C° 0.7 mm 1 mps 697 mmHg 95%
    22:00 +23°C° 0.3 mm 1 mps 697 mmHg 95%
    23:00 +22°C° 0.3 mm 1 mps 697 mmHg 95%

    Day after tomorrow, 21 October, Sunday

    Time Temperature Precipitation Wind Pressure Humidity
    00:00 +22°C° 0.3 mm 1 mps 697 mmHg 95%
    01:00 +22°C° 0.1 mm 1 mps 697 mmHg 95%
    02:00 +22°C° 0.1 mm 1 mps 696 mmHg 95%
    03:00 +22°C° 0.1 mm 1 mps 696 mmHg 94%
    04:00 +22°C° 0.1 mm 1 mps 696 mmHg 95%
    05:00 +21°C° 0.1 mm 1 mps 696 mmHg 95%
    06:00 +21°C° 0.1 mm 1 mps 696 mmHg 95%
    07:00 +23°C° 0 mm 1 mps 697 mmHg 88%
    08:00 +24°C° 0 mm 1 mps 698 mmHg 81%
    09:00 +26°C° 0 mm 1 mps 698 mmHg 75%
    10:00 +27°C° 0 mm 2 mps 698 mmHg 68%
    11:00 +28°C° 0 mm 2 mps 698 mmHg 62%
    12:00 +29°C° 0 mm 2 mps 697 mmHg 56%
    13:00 +29°C° 0 mm 2 mps 697 mmHg 56%
    14:00 +29°C° 0 mm 2 mps 696 mmHg 56%
    15:00 +29°C° 0 mm 2 mps 695 mmHg 57%
    16:00 +27°C° 0 mm 2 mps 695 mmHg 66%
    17:00 +25°C° 0 mm 1 mps 695 mmHg 75%
    18:00 +23°C° 0 mm 1 mps 695 mmHg 84%
    19:00 +22°C° 0 mm 1 mps 696 mmHg 87%
    20:00 +22°C° 0 mm 1 mps 696 mmHg 91%
    21:00 +21°C° 0 mm 1 mps 697 mmHg 94%
    22:00 +21°C° 0 mm 1 mps 697 mmHg 94%
    23:00 +21°C° 0 mm 1 mps 697 mmHg 95%

    22 October, Monday

    Time Temperature Precipitation Wind Pressure Humidity
    00:00 +20°C° 0 mm 1 mps 697 mmHg 95%
    01:00 +20°C° 0 mm 1 mps 697 mmHg 95%
    02:00 +20°C° 0 mm 1 mps 696 mmHg 95%
    03:00 +20°C° 0 mm 1 mps 696 mmHg 95%
    04:00 +20°C° 0 mm 1 mps 696 mmHg 94%
    05:00 +20°C° 0 mm 1 mps 697 mmHg 94%
    06:00 +19°C° 0 mm 1 mps 697 mmHg 93%
    07:00 +22°C° 0 mm 1 mps 697 mmHg 85%
    08:00 +24°C° 0 mm 1 mps 698 mmHg 77%
    09:00 +26°C° 0 mm 1 mps 699 mmHg 70%
    10:00 +27°C° 0 mm 1 mps 698 mmHg 65%
    11:00 +28°C° 0 mm 1 mps 698 mmHg 60%
    12:00 +30°C° 0 mm 2 mps 698 mmHg 55%
    13:00 +29°C° 0.1 mm 2 mps 697 mmHg 56%
    14:00 +29°C° 0.1 mm 2 mps 697 mmHg 57%
    15:00 +29°C° 0.1 mm 2 mps 696 mmHg 59%
    16:00 +27°C° 0.1 mm 2 mps 696 mmHg 68%
    17:00 +25°C° 0.1 mm 1 mps 696 mmHg 77%
    18:00 +23°C° 0.1 mm 1 mps 696 mmHg 87%
    19:00 +23°C° 0.1 mm 1 mps 697 mmHg 90%
    20:00 +22°C° 0.1 mm 1 mps 697 mmHg 93%
    21:00 +22°C° 0.1 mm 1 mps 698 mmHg 96%
    22:00 +21°C° 0 mm 1 mps 698 mmHg 96%
    23:00 +21°C° 0 mm 1 mps 698 mmHg 96%

    23 October, Tuesday

    Time Temperature Precipitation Wind Pressure Humidity
    00:00 +21°C° 0 mm 1 mps 697 mmHg 96%
    01:00 +21°C° 0 mm 1 mps 697 mmHg 96%
    02:00 +21°C° 0 mm 1 mps 697 mmHg 95%
    03:00 +21°C° 0 mm 1 mps 697 mmHg 95%
    04:00 +20°C° 0 mm 1 mps 697 mmHg 94%
    05:00 +20°C° 0 mm 1 mps 697 mmHg 94%
    06:00 +20°C° 0 mm 1 mps 697 mmHg 93%
    07:00 +22°C° 0 mm 1 mps 698 mmHg 85%
    08:00 +25°C° 0 mm 1 mps 699 mmHg 77%
    09:00 +27°C° 0 mm 1 mps 699 mmHg 69%
    10:00 +28°C° 0 mm 1 mps 699 mmHg 63%
    11:00 +29°C° 0 mm 2 mps 698 mmHg 57%
    12:00 +30°C° 0 mm 2 mps 698 mmHg 51%
    13:00 +30°C° 0 mm 2 mps 697 mmHg 51%
    14:00 +30°C° 0 mm 2 mps 697 mmHg 51%
    15:00 +30°C° 0 mm 2 mps 696 mmHg 51%
    16:00 +28°C° 0 mm 2 mps 696 mmHg 60%
    17:00 +26°C° 0 mm 1 mps 696 mmHg 69%
    18:00 +23°C° 0 mm 1 mps 696 mmHg 79%
    19:00 +22°C° 0 mm 1 mps 697 mmHg 83%
    20:00 +22°C° 0 mm 1 mps 697 mmHg 87%
    21:00 +21°C° 0 mm 1 mps 697 mmHg 91%
    22:00 +21°C° 0 mm 1 mps 697 mmHg 92%
    23:00 +20°C° 0 mm 1 mps 697 mmHg 93%

    24 October, Wednesday

    Time Temperature Precipitation Wind Pressure Humidity
    00:00 +20°C° 0 mm 1 mps 697 mmHg 94%
    01:00 +20°C° 0 mm 1 mps 697 mmHg 93%
    02:00 +20°C° 0 mm 1 mps 697 mmHg 93%
    03:00 +20°C° 0 mm 1 mps 697 mmHg 93%
    04:00 +20°C° 0 mm 1 mps 697 mmHg 93%
    05:00 +20°C° 0 mm 1 mps 697 mmHg 93%
    06:00 +20°C° 0 mm 1 mps 697 mmHg 93%
    07:00 +22°C° 0 mm 1 mps 698 mmHg 84%
    08:00 +25°C° 0 mm 1 mps 699 mmHg 76%
    09:00 +27°C° 0 mm 1 mps 699 mmHg 67%
    10:00 +28°C° 0 mm 1 mps 699 mmHg 63%
    11:00 +29°C° 0 mm 1 mps 698 mmHg 59%
    12:00 +30°C° 0 mm 2 mps 698 mmHg 55%
    13:00 +30°C° 0 mm 2 mps 697 mmHg 55%
    14:00 +30°C° 0 mm 2 mps 697 mmHg 55%
    15:00 +30°C° 0 mm 2 mps 696 mmHg 54%
    16:00 +28°C° 0 mm 2 mps 696 mmHg 64%
    17:00 +26°C° 0 mm 1 mps 696 mmHg 74%
    18:00 +24°C° 0 mm 1 mps 696 mmHg 83%
    19:00 +23°C° 0 mm 1 mps 697 mmHg 87%
    20:00 +22°C° 0 mm 1 mps 697 mmHg 90%
    21:00 +21°C° 0 mm 1 mps 698 mmHg 94%
    22:00 +21°C° 0 mm 1 mps 697 mmHg 95%
    23:00 +21°C° 0 mm 1 mps 697 mmHg 95%
    Show more